Regional Weather Roundup
Issued by NWS

Home | Current Version | Previous Version | Graphics & Text | Print | Product List | Glossary On
Versions: 1 2 3 4 5 6 7 8 9 10 11 12 13 14 15 16 17 18 19 20 21 22 23 24 25 26 27 28 29 30 31 32 33 34 35 36 37 38 39 40 41 42 43 44 45 46 47 48 49 50
000
ASUS43 KLMK 091310
RWRKY
KENTUCKY REGIONAL WEATHER ROUNDUP
NATIONAL WEATHER SERVICE LOUISVILLE KY
800 AM EST TUE FEB 09 2016

NOTE "FAIR" INDICATES FEW OR NO CLOUDS BELOW 12,000 FEET
WITH NO SIGNIFICANT WEATHER AND/OR OBSTRUCTIONS TO VISIBILITY.

KYZ001>023-026-027-061>063-070>075-091400-
WESTERN AND SOUTH CENTRAL KENTUCKY

CITY           SKY/WX    TMP DP  RH WIND       PRES   REMARKS
PADUCAH        LGT SNOW  22  16  78 NW8       29.93R WCI  12
HENDERSON      CLOUDY    21  14  73 W15       29.89R WCI   8
OWENSBORO      FLURRIES  21  15  78 W7        29.89R WCI  12
HOPKINSVILLE   FLURRIES  22  17  82 NW7       29.89R WCI  14
BOWLING GREEN  CLOUDY    23  15  71 NW7       29.89R WCI  15
GLASGOW        FLURRIES  21  16  81 W6        29.86R WCI  13
$$

KYZ024-025-028>034-038-045-046-053-091400-
NORTH CENTRAL KENTUCKY

CITY           SKY/WX    TMP DP  RH WIND       PRES   REMARKS
LOUISVILLE/SDF FLURRIES  22  15  75 W13       29.83R WCI  10
LOUISVILLE/LOU CLOUDY    22  14  71 W7        29.83S WCI  13
FORT KNOX      CLOUDY    19  14  79 W8        29.81S WCI   9
$$

KYZ035>037-039>044-047>052-055>060-089>105-091400-
NORTHEAST KENTUCKY

CITY           SKY/WX    TMP DP  RH WIND       PRES   REMARKS
LEXINGTON      CLOUDY    20  12  71 W9        29.79R WCI   9
COVINGTON      MOCLDY    19  16  88 SW8       29.74S FOG     WCI   9
FRANKFORT      CLOUDY    20  13  74 W8        29.79R WCI  10
$$

KYZ054-064>069-076>088-106>120-091400-
SOUTHEAST KENTUCKY

CITY           SKY/WX    TMP DP  RH WIND       PRES   REMARKS
JACKSON        LGT SNOW  19  14  81 VRB3      29.76R
LONDON         LGT SNOW  19  15  84 W8        29.80R FOG     WCI   9
SOMERSET       FLURRIES  21  14  73 W9        29.85R WCI  11
MIDDLESBORO    CLOUDY    23  15  72 W5        29.81R WCI  16
MONTICELLO     FLURRIES  21  15  78 W8        29.85R WCI  11
$$




USA.gov is the U.S. government's official web portal to all federal, state and local government web resources and services.